Time,TemperatureF,DewpointF,PressureIn,WindDirection,WindDirectionDegrees,WindSpeedMPH,WindSpeedGustMPH,Humidity,HourlyPrecipIn,Conditions,Clouds,dailyrainin,SoftwareType,DateUTC
2013-02-09 00:00:00,43.9,38.2,29.89,South,180,0.3,1.1,80,0.00,,,0.00,WUHU216HW,2013-02-09 08:00:00,
2013-02-09 00:05:00,43.9,38.2,29.89,South,180,0.0,0.9,80,0.00,,,0.00,WUHU216HW,2013-02-09 08:05:00,
2013-02-09 00:10:00,43.7,38.3,29.89,South,180,0.0,0.0,81,0.00,,,0.00,WUHU216HW,2013-02-09 08:10:00,
2013-02-09 00:15:00,43.7,38.3,29.89,South,180,0.0,0.0,81,0.00,,,0.00,WUHU216HW,2013-02-09 08:15:00,
2013-02-09 00:20:00,43.7,38.3,29.89,South,180,0.0,0.0,81,0.00,,,0.00,WUHU216HW,2013-02-09 08:20:00,
2013-02-09 00:25:00,43.6,38.1,29.89,South,180,0.0,0.2,81,0.00,,,0.00,WUHU216HW,2013-02-09 08:25:00,
2013-02-09 00:30:00,43.7,38.3,29.89,South,180,0.0,0.2,81,0.00,,,0.00,WUHU216HW,2013-02-09 08:30:00,
2013-02-09 00:35:00,43.6,38.1,29.89,South,180,0.6,0.7,81,0.00,,,0.00,WUHU216HW,2013-02-09 08:35:00,
2013-02-09 00:40:00,43.6,38.1,29.89,SE,135,0.0,0.7,81,0.00,,,0.00,WUHU216HW,2013-02-09 08:40:00,
2013-02-09 00:45:00,43.6,38.1,29.88,SSE,158,0.0,0.4,81,0.00,,,0.00,WUHU216HW,2013-02-09 08:45:00,
2013-02-09 00:50:00,43.6,38.1,29.89,SSE,158,0.0,0.4,81,0.00,,,0.00,WUHU216HW,2013-02-09 08:50:00,
2013-02-09 00:55:00,43.6,38.1,29.89,SSE,158,0.0,0.4,81,0.00,,,0.00,WUHU216HW,2013-02-09 08:55:00,
2013-02-09 01:00:00,43.6,38.1,29.89,SSE,158,0.0,0.2,81,0.00,,,0.00,WUHU216HW,2013-02-09 09:00:00,
2013-02-09 01:05:00,43.6,38.1,29.89,SSE,158,0.0,0.0,81,0.00,,,0.00,WUHU216HW,2013-02-09 09:05:00,
2013-02-09 01:10:00,43.6,38.1,29.89,SSE,158,0.6,1.3,81,0.00,,,0.00,WUHU216HW,2013-02-09 09:10:00,
2013-02-09 01:15:00,43.4,37.9,29.89,South,180,0.6,1.3,81,0.00,,,0.00,WUHU216HW,2013-02-09 09:15:00,
2013-02-09 01:20:00,43.4,37.9,29.89,South,180,0.2,1.1,81,0.00,,,0.00,WUHU216HW,2013-02-09 09:20:00,
2013-02-09 01:25:00,43.2,37.7,29.89,South,180,0.0,0.9,81,0.00,,,0.00,WUHU216HW,2013-02-09 09:25:00,
2013-02-09 01:30:00,43.2,37.7,29.89,South,180,0.0,0.2,81,0.00,,,0.00,WUHU216HW,2013-02-09 09:30:00,
2013-02-09 01:35:00,43.4,37.9,29.89,South,180,0.0,1.1,81,0.00,,,0.00,WUHU216HW,2013-02-09 09:35:00,
2013-02-09 01:40:00,43.4,37.9,29.90,South,180,0.9,1.1,81,0.00,,,0.00,WUHU216HW,2013-02-09 09:40:00,
2013-02-09 01:45:00,43.2,37.7,29.89,South,186,0.4,0.9,81,0.00,,,0.00,WUHU216HW,2013-02-09 09:45:00,
2013-02-09 01:50:00,43.2,37.7,29.89,SSW,203,0.4,0.9,81,0.00,,,0.00,WUHU216HW,2013-02-09 09:50:00,
2013-02-09 01:55:00,43.2,37.7,29.89,SSE,158,1.1,1.1,81,0.00,,,0.00,WUHU216HW,2013-02-09 09:55:00,
2013-02-09 02:00:00,43.2,37.7,29.89,SSE,158,0.0,1.1,81,0.00,,,0.00,WUHU216HW,2013-02-09 10:00:00,
2013-02-09 02:05:00,43.0,37.5,29.89,SSE,158,0.7,1.1,81,0.00,,,0.00,WUHU216HW,2013-02-09 10:05:00,
2013-02-09 02:10:00,43.0,37.5,29.89,SSE,158,0.0,0.9,81,0.00,,,0.00,WUHU216HW,2013-02-09 10:10:00,
2013-02-09 02:15:00,43.0,37.5,29.89,SSE,158,0.0,0.9,81,0.00,,,0.00,WUHU216HW,2013-02-09 10:15:00,
2013-02-09 02:20:00,43.0,37.5,29.89,SSE,158,0.0,0.7,81,0.00,,,0.00,WUHU216HW,2013-02-09 10:20:00,
2013-02-09 02:25:00,43.0,37.5,29.89,SSE,158,0.0,0.0,81,0.00,,,0.00,WUHU216HW,2013-02-09 10:25:00,
2013-02-09 02:30:00,42.8,37.4,29.89,South,176,0.3,0.9,81,0.00,,,0.00,WUHU216HW,2013-02-09 10:30:00,
2013-02-09 02:35:00,43.0,37.5,29.89,South,180,0.0,0.9,81,0.00,,,0.00,WUHU216HW,2013-02-09 10:35:00,
2013-02-09 02:40:00,43.0,37.5,29.89,South,180,0.0,0.0,81,0.00,,,0.00,WUHU216HW,2013-02-09 10:40:00,
2013-02-09 02:45:00,43.0,37.5,29.89,SSE,158,0.2,0.2,81,0.00,,,0.00,WUHU216HW,2013-02-09 10:45:00,
2013-02-09 02:50:00,43.0,37.5,29.89,SSE,158,0.0,0.9,81,0.00,,,0.00,WUHU216HW,2013-02-09 10:50:00,
2013-02-09 02:55:00,43.0,37.5,29.89,SSE,158,0.0,0.9,81,0.00,,,0.00,WUHU216HW,2013-02-09 10:55:00,
2013-02-09 03:00:00,43.0,37.5,29.88,South,180,1.1,1.1,81,0.00,,,0.00,WUHU216HW,2013-02-09 11:00:00,
2013-02-09 03:05:00,42.8,37.4,29.88,South,180,0.6,1.1,81,0.00,,,0.00,WUHU216HW,2013-02-09 11:05:00,
2013-02-09 03:10:00,42.8,37.4,29.88,SSW,203,0.4,1.1,81,0.00,,,0.00,WUHU216HW,2013-02-09 11:10:00,
2013-02-09 03:15:00,42.8,37.7,29.88,SSW,203,0.0,0.4,82,0.00,,,0.00,WUHU216HW,2013-02-09 11:15:00,
2013-02-09 03:20:00,42.8,37.7,29.88,South,180,1.1,1.1,82,0.00,,,0.00,WUHU216HW,2013-02-09 11:20:00,
2013-02-09 03:25:00,42.7,37.5,29.88,SSE,158,0.7,1.1,82,0.00,,,0.00,WUHU216HW,2013-02-09 11:25:00,
2013-02-09 03:30:00,42.7,37.5,29.88,SSE,158,0.9,1.1,82,0.00,,,0.00,WUHU216HW,2013-02-09 11:30:00,
2013-02-09 03:35:00,42.7,37.5,29.88,SSW,194,0.8,1.1,82,0.00,,,0.00,WUHU216HW,2013-02-09 11:35:00,
2013-02-09 03:40:00,42.7,37.5,29.88,SSW,203,0.9,1.1,82,0.00,,,0.00,WUHU216HW,2013-02-09 11:40:00,
2013-02-09 03:45:00,42.5,37.4,29.88,SSW,203,1.6,1.8,82,0.00,,,0.00,WUHU216HW,2013-02-09 11:45:00,
2013-02-09 03:50:00,42.5,37.4,29.88,South,182,0.8,2.9,82,0.00,,,0.00,WUHU216HW,2013-02-09 11:50:00,
2013-02-09 03:55:00,42.5,37.4,29.88,SSE,158,0.2,2.9,82,0.00,,,0.00,WUHU216HW,2013-02-09 11:55:00,
2013-02-09 04:00:00,42.3,37.2,29.88,SSW,203,1.1,2.0,82,0.00,,,0.00,WUHU216HW,2013-02-09 12:00:00,
2013-02-09 04:05:00,42.1,37.3,29.88,South,180,1.1,2.0,83,0.00,,,0.00,WUHU216HW,2013-02-09 12:05:00,
2013-02-09 04:10:00,42.1,37.3,29.88,SE,139,1.1,2.0,83,0.00,,,0.00,WUHU216HW,2013-02-09 12:10:00,
2013-02-09 04:15:00,42.1,37.3,29.88,SSE,158,0.0,2.0,83,0.00,,,0.00,WUHU216HW,2013-02-09 12:15:00,
2013-02-09 04:20:00,42.1,37.3,29.88,SSE,158,0.0,1.6,83,0.00,,,0.00,WUHU216HW,2013-02-09 12:20:00,
2013-02-09 04:25:00,42.1,37.3,29.88,South,180,0.4,0.7,83,0.00,,,0.00,WUHU216HW,2013-02-09 12:25:00,
2013-02-09 04:30:00,42.3,37.4,29.88,SSE,158,0.3,1.1,83,0.00,,,0.00,WUHU216HW,2013-02-09 12:30:00,
2013-02-09 04:35:00,42.3,37.4,29.88,SSE,158,0.4,1.1,83,0.00,,,0.00,WUHU216HW,2013-02-09 12:35:00,
2013-02-09 04:40:00,42.3,37.8,29.88,South,179,1.1,1.3,84,0.00,,,0.00,WUHU216HW,2013-02-09 12:40:00,
2013-02-09 04:45:00,42.1,37.6,29.88,WSW,248,1.8,2.5,84,0.00,,,0.00,WUHU216HW,2013-02-09 12:45:00,
2013-02-09 04:50:00,42.1,37.6,29.88,South,180,1.1,2.5,84,0.00,,,0.00,WUHU216HW,2013-02-09 12:50:00,
2013-02-09 04:55:00,41.9,37.5,29.88,South,180,0.9,2.5,84,0.00,,,0.00,WUHU216HW,2013-02-09 12:55:00,
2013-02-09 05:00:00,41.9,37.5,29.88,South,180,1.3,1.8,84,0.00,,,0.00,WUHU216HW,2013-02-09 13:00:00,
2013-02-09 05:05:00,41.9,37.5,29.88,SSE,158,0.3,2.2,84,0.00,,,0.00,WUHU216HW,2013-02-09 13:05:00,
2013-02-09 05:10:00,41.9,37.5,29.88,South,180,0.0,2.2,84,0.00,,,0.00,WUHU216HW,2013-02-09 13:10:00,
2013-02-09 05:15:00,42.1,37.6,29.88,SSE,158,0.0,0.9,84,0.00,,,0.00,WUHU216HW,2013-02-09 13:15:00,
2013-02-09 05:20:00,41.9,37.7,29.88,South,177,0.9,1.6,85,0.00,,,0.00,WUHU216HW,2013-02-09 13:20:00,
2013-02-09 05:25:00,41.9,37.7,29.88,SSE,150,0.7,1.8,85,0.00,,,0.00,WUHU216HW,2013-02-09 13:25:00,
2013-02-09 05:30:00,41.9,37.7,29.88,South,174,0.9,1.8,85,0.00,,,0.00,WUHU216HW,2013-02-09 13:30:00,
2013-02-09 05:35:00,41.8,37.5,29.88,SSW,203,1.1,1.8,85,0.00,,,0.00,WUHU216HW,2013-02-09 13:35:00,
2013-02-09 05:40:00,41.6,37.1,29.88,South,183,0.9,2.0,84,0.00,,,0.00,WUHU216HW,2013-02-09 13:40:00,
2013-02-09 05:45:00,41.6,37.1,29.88,South,180,1.1,2.0,84,0.00,,,0.00,WUHU216HW,2013-02-09 13:45:00,
2013-02-09 05:50:00,41.6,37.1,29.88,South,185,0.8,1.1,84,0.00,,,0.00,WUHU216HW,2013-02-09 13:50:00,
2013-02-09 05:55:00,41.4,37.2,29.88,South,178,1.0,1.8,85,0.00,,,0.00,WUHU216HW,2013-02-09 13:55:00,
2013-02-09 06:00:00,41.4,37.2,29.88,South,180,0.7,1.8,85,0.00,,,0.00,WUHU216HW,2013-02-09 14:00:00,
2013-02-09 06:05:00,41.4,37.2,29.88,South,180,0.7,1.8,85,0.00,,,0.00,WUHU216HW,2013-02-09 14:05:00,
2013-02-09 06:10:00,41.4,37.2,29.88,South,180,0.2,1.3,85,0.00,,,0.00,WUHU216HW,2013-02-09 14:10:00,
2013-02-09 06:15:00,41.4,37.2,29.88,South,183,1.0,2.0,85,0.00,,,0.00,WUHU216HW,2013-02-09 14:15:00,
2013-02-09 06:20:00,41.4,37.2,29.88,SSE,162,0.8,2.0,85,0.00,,,0.00,WUHU216HW,2013-02-09 14:20:00,
2013-02-09 06:25:00,41.4,37.2,29.89,South,180,0.7,1.3,85,0.00,,,0.00,WUHU216HW,2013-02-09 14:25:00,
2013-02-09 06:30:00,41.6,37.4,29.89,South,180,0.2,0.9,85,0.00,,,0.00,WUHU216HW,2013-02-09 14:30:00,
2013-02-09 06:35:00,41.6,37.6,29.88,SSW,203,0.6,1.1,86,0.00,,,0.00,WUHU216HW,2013-02-09 14:35:00,
2013-02-09 06:40:00,41.6,37.4,29.89,SSW,203,0.0,1.1,85,0.00,,,0.00,WUHU216HW,2013-02-09 14:40:00,
2013-02-09 06:45:00,41.8,37.8,29.89,South,180,0.5,0.7,86,0.00,,,0.00,WUHU216HW,2013-02-09 14:45:00,
2013-02-09 06:50:00,41.8,37.8,29.89,South,180,1.1,2.0,86,0.00,,,0.00,WUHU216HW,2013-02-09 14:50:00,
2013-02-09 06:55:00,41.6,37.6,29.89,SSE,168,0.8,2.0,86,0.00,,,0.00,WUHU216HW,2013-02-09 14:55:00,
2013-02-09 07:00:00,41.6,37.6,29.89,South,180,1.8,1.8,86,0.00,,,0.00,WUHU216HW,2013-02-09 15:00:00,
2013-02-09 07:05:00,41.4,37.4,29.89,South,181,1.2,1.8,86,0.00,,,0.00,WUHU216HW,2013-02-09 15:05:00,
2013-02-09 07:10:00,41.4,37.4,29.89,South,180,1.1,1.8,86,0.00,,,0.00,WUHU216HW,2013-02-09 15:10:00,
2013-02-09 07:15:00,41.4,37.8,29.89,South,180,1.1,1.3,87,0.00,,,0.00,WUHU216HW,2013-02-09 15:15:00,
2013-02-09 07:20:00,41.4,37.4,29.88,SSW,203,1.1,1.3,86,0.00,,,0.00,WUHU216HW,2013-02-09 15:20:00,
2013-02-09 07:25:00,41.4,37.8,29.88,SSE,156,0.8,1.3,87,0.00,,,0.00,WUHU216HW,2013-02-09 15:25:00,
2013-02-09 07:30:00,41.4,37.8,29.89,SSW,203,1.6,1.6,87,0.00,,,0.00,WUHU216HW,2013-02-09 15:30:00,
2013-02-09 07:35:00,41.4,37.8,29.88,South,184,0.7,1.6,87,0.00,,,0.00,WUHU216HW,2013-02-09 15:35:00,
2013-02-09 07:40:00,41.4,37.8,29.89,SSW,203,0.9,1.6,87,0.00,,,0.00,WUHU216HW,2013-02-09 15:40:00,
2013-02-09 07:45:00,41.4,37.8,29.88,South,180,1.0,1.8,87,0.00,,,0.00,WUHU216HW,2013-02-09 15:45:00,
2013-02-09 07:50:00,41.6,38.0,29.88,South,176,2.1,2.7,87,0.00,,,0.00,WUHU216HW,2013-02-09 15:50:00,
2013-02-09 07:55:00,41.4,37.8,29.88,South,176,1.9,3.1,87,0.00,,,0.00,WUHU216HW,2013-02-09 15:55:00,
2013-02-09 08:00:00,41.4,37.8,29.88,South,173,1.3,3.1,87,0.00,,,0.00,WUHU216HW,2013-02-09 16:00:00,
2013-02-09 08:05:00,41.4,37.8,29.88,SSE,162,1.1,2.2,87,0.00,,,0.00,WUHU216HW,2013-02-09 16:05:00,
2013-02-09 08:10:00,41.4,37.8,29.88,SSE,166,1.1,2.5,87,0.00,,,0.00,WUHU216HW,2013-02-09 16:10:00,
2013-02-09 08:15:00,41.6,38.0,29.88,SE,145,0.5,2.5,87,0.00,,,0.00,WUHU216HW,2013-02-09 16:15:00,
2013-02-09 08:20:00,41.6,38.0,29.88,South,170,0.8,2.0,87,0.00,,,0.00,WUHU216HW,2013-02-09 16:20:00,
2013-02-09 08:25:00,41.8,38.2,29.88,SSW,197,0.9,2.9,87,0.00,,,0.00,WUHU216HW,2013-02-09 16:25:00,
2013-02-09 08:30:00,41.9,38.4,29.89,South,187,0.7,2.9,87,0.00,,,0.00,WUHU216HW,2013-02-09 16:30:00,
2013-02-09 08:35:00,42.1,38.5,29.89,SSE,158,1.1,2.0,87,0.00,,,0.00,WUHU216HW,2013-02-09 16:35:00,
2013-02-09 08:40:00,42.1,38.5,29.88,South,180,1.1,3.4,87,0.00,,,0.00,WUHU216HW,2013-02-09 16:40:00,
2013-02-09 08:45:00,42.1,38.5,29.88,South,180,1.1,4.5,87,0.00,,,0.00,WUHU216HW,2013-02-09 16:45:00,
2013-02-09 08:50:00,42.1,38.5,29.88,South,173,1.3,4.5,87,0.00,,,0.00,WUHU216HW,2013-02-09 16:50:00,
2013-02-09 08:55:00,42.3,38.7,29.88,SSE,158,2.0,3.4,87,0.00,,,0.00,WUHU216HW,2013-02-09 16:55:00,
2013-02-09 09:00:00,42.3,38.7,29.88,SSE,168,1.0,2.0,87,0.00,,,0.00,WUHU216HW,2013-02-09 17:00:00,
2013-02-09 09:05:00,42.5,38.9,29.89,South,180,0.6,2.0,87,0.00,,,0.00,WUHU216HW,2013-02-09 17:05:00,
2013-02-09 09:10:00,42.5,38.5,29.89,SE,135,0.9,1.8,86,0.00,,,0.00,WUHU216HW,2013-02-09 17:10:00,
2013-02-09 09:15:00,42.8,38.9,29.89,South,177,0.8,1.8,86,0.00,,,0.00,WUHU216HW,2013-02-09 17:15:00,
2013-02-09 09:20:00,43.0,39.1,29.89,SSE,168,0.4,1.6,86,0.00,,,0.00,WUHU216HW,2013-02-09 17:20:00,
2013-02-09 09:25:00,43.0,39.1,29.90,SSE,150,0.8,1.8,86,0.00,,,0.00,WUHU216HW,2013-02-09 17:25:00,
2013-02-09 09:30:00,43.0,38.8,29.89,South,185,0.8,2.2,85,0.00,,,0.00,WUHU216HW,2013-02-09 17:30:00,
2013-02-09 09:35:00,43.2,39.0,29.89,SSW,196,1.1,2.2,85,0.00,,,0.00,WUHU216HW,2013-02-09 17:35:00,
2013-02-09 09:40:00,43.6,39.6,29.90,South,180,1.1,1.8,86,0.00,,,0.00,WUHU216HW,2013-02-09 17:40:00,
2013-02-09 09:45:00,43.7,39.8,29.90,SSE,158,0.3,1.6,86,0.00,,,0.00,WUHU216HW,2013-02-09 17:45:00,
2013-02-09 09:50:00,44.1,40.1,29.89,SSW,193,1.0,1.8,86,0.00,,,0.00,WUHU216HW,2013-02-09 17:50:00,
2013-02-09 09:55:00,44.3,40.1,29.90,SSE,156,1.4,1.8,85,0.00,,,0.00,WUHU216HW,2013-02-09 17:55:00,
2013-02-09 10:00:00,44.8,40.3,29.89,SSE,166,1.4,1.8,84,0.00,,,0.00,WUHU216HW,2013-02-09 18:00:00,
2013-02-09 10:05:00,45.0,40.5,29.90,SSE,158,2.7,2.7,84,0.00,,,0.00,WUHU216HW,2013-02-09 18:05:00,
2013-02-09 10:10:00,45.2,40.7,29.90,South,180,1.8,2.7,84,0.00,,,0.00,WUHU216HW,2013-02-09 18:10:00,
2013-02-09 10:15:00,45.4,40.5,29.90,SSW,203,1.8,2.0,83,0.00,,,0.00,WUHU216HW,2013-02-09 18:15:00,
2013-02-09 10:20:00,45.9,41.0,29.90,South,180,1.8,1.8,83,0.00,,,0.00,WUHU216HW,2013-02-09 18:20:00,
2013-02-09 10:25:00,46.1,41.0,29.90,South,180,1.2,2.0,82,0.00,,,0.00,WUHU216HW,2013-02-09 18:25:00,
2013-02-09 10:30:00,46.3,41.1,29.90,SSW,203,0.7,2.0,82,0.00,,,0.00,WUHU216HW,2013-02-09 18:30:00,
2013-02-09 10:35:00,46.4,41.3,29.90,South,180,0.4,1.6,82,0.00,,,0.00,WUHU216HW,2013-02-09 18:35:00,
2013-02-09 10:40:00,46.8,41.3,29.90,SSE,158,1.1,1.6,81,0.00,,,0.00,WUHU216HW,2013-02-09 18:40:00,
2013-02-09 10:45:00,47.0,41.5,29.91,South,180,0.3,1.6,81,0.00,,,0.00,WUHU216HW,2013-02-09 18:45:00,
2013-02-09 10:50:00,47.2,41.7,29.91,ESE,113,0.4,1.6,81,0.00,,,0.00,WUHU216HW,2013-02-09 18:50:00,
2013-02-09 10:55:00,47.0,41.1,29.91,ESE,113,0.4,1.6,80,0.00,,,0.00,WUHU216HW,2013-02-09 18:55:00,
2013-02-09 11:00:00,47.2,41.3,29.91,West,260,0.8,1.1,80,0.00,,,0.00,WUHU216HW,2013-02-09 19:00:00,
2013-02-09 11:05:00,47.7,41.9,29.91,NNW,338,0.5,1.1,80,0.00,,,0.00,WUHU216HW,2013-02-09 19:05:00,
2013-02-09 11:10:00,48.1,42.1,29.91,NNW,338,0.0,1.1,80,0.00,,,0.00,WUHU216HW,2013-02-09 19:10:00,
2013-02-09 11:15:00,48.6,42.3,29.91,SE,135,0.9,1.1,79,0.00,,,0.00,WUHU216HW,2013-02-09 19:15:00,
2013-02-09 11:20:00,49.3,43.0,29.91,West,262,0.9,1.8,79,0.00,,,0.00,WUHU216HW,2013-02-09 19:20:00,
2013-02-09 11:25:00,49.5,42.8,29.90,WSW,255,1.7,2.5,78,0.00,,,0.00,WUHU216HW,2013-02-09 19:25:00,
2013-02-09 11:30:00,49.5,42.6,29.91,South,180,0.3,2.5,77,0.00,,,0.00,WUHU216HW,2013-02-09 19:30:00,
2013-02-09 11:35:00,49.3,42.4,29.90,West,276,1.0,1.6,77,0.00,,,0.00,WUHU216HW,2013-02-09 19:35:00,
2013-02-09 11:40:00,49.0,41.7,29.90,NNW,338,0.8,1.6,76,0.00,,,0.00,WUHU216HW,2013-02-09 19:40:00,
2013-02-09 11:45:00,48.8,41.9,29.90,NNE,23,1.1,2.2,77,0.00,,,0.00,WUHU216HW,2013-02-09 19:45:00,
2013-02-09 11:50:00,48.6,41.7,29.90,NE,36,0.8,2.2,77,0.00,,,0.00,WUHU216HW,2013-02-09 19:50:00,
2013-02-09 11:55:00,48.4,41.5,29.90,NW,315,0.7,1.6,77,0.00,,,0.00,WUHU216HW,2013-02-09 19:55:00,
2013-02-09 12:00:00,48.4,41.1,29.89,NNW,338,0.0,1.3,76,0.00,,,0.00,WUHU216HW,2013-02-09 20:00:00,
2013-02-09 12:05:00,48.2,41.0,29.89,NNE,23,0.7,1.6,76,0.00,,,0.00,WUHU216HW,2013-02-09 20:05:00,
2013-02-09 12:10:00,48.2,41.0,29.89,North,0,0.9,2.0,76,0.00,,,0.00,WUHU216HW,2013-02-09 20:10:00,
2013-02-09 12:15:00,48.2,41.0,29.89,NNE,18,1.2,2.0,76,0.00,,,0.00,WUHU216HW,2013-02-09 20:15:00,
2013-02-09 12:20:00,48.2,41.0,29.89,NNE,23,1.6,2.0,76,0.00,,,0.00,WUHU216HW,2013-02-09 20:20:00,
2013-02-09 12:25:00,48.4,40.8,29.89,North,0,0.9,2.0,75,0.00,,,0.00,WUHU216HW,2013-02-09 20:25:00,
2013-02-09 12:30:00,48.6,41.3,29.89,NE,38,0.7,2.7,76,0.00,,,0.00,WUHU216HW,2013-02-09 20:30:00,
2013-02-09 12:35:00,48.6,41.3,29.89,North,7,1.4,2.7,76,0.00,,,0.00,WUHU216HW,2013-02-09 20:35:00,
2013-02-09 12:40:00,48.8,41.1,29.89,North,0,0.4,2.5,75,0.00,,,0.00,WUHU216HW,2013-02-09 20:40:00,
2013-02-09 12:45:00,48.8,41.1,29.89,NNW,348,0.5,1.6,75,0.00,,,0.00,WUHU216HW,2013-02-09 20:45:00,
2013-02-09 12:50:00,49.0,41.3,29.89,NE,55,0.6,2.5,75,0.00,,,0.00,WUHU216HW,2013-02-09 20:50:00,
2013-02-09 12:55:00,49.0,41.3,29.89,North,0,0.9,2.5,75,0.00,,,0.00,WUHU216HW,2013-02-09 20:55:00,
2013-02-09 13:00:00,48.8,41.1,29.89,NNE,23,1.8,2.0,75,0.00,,,0.00,WUHU216HW,2013-02-09 21:00:00,
2013-02-09 13:05:00,48.6,40.6,29.89,ENE,69,0.7,2.0,74,0.00,,,0.00,WUHU216HW,2013-02-09 21:05:00,
2013-02-09 13:10:00,48.4,40.8,29.89,NE,37,0.7,2.0,75,0.00,,,0.00,WUHU216HW,2013-02-09 21:10:00,
2013-02-09 13:15:00,48.1,40.4,29.89,North,349,0.3,0.9,75,0.00,,,0.00,WUHU216HW,2013-02-09 21:15:00,
2013-02-09 13:20:00,48.1,40.4,29.89,NNW,338,2.5,2.5,75,0.00,,,0.00,WUHU216HW,2013-02-09 21:20:00,
2013-02-09 13:25:00,48.1,40.4,29.89,ENE,62,0.9,2.7,75,0.00,,,0.00,WUHU216HW,2013-02-09 21:25:00,
2013-02-09 13:30:00,48.2,40.6,29.89,NNE,23,1.8,2.7,75,0.00,,,0.00,WUHU216HW,2013-02-09 21:30:00,
2013-02-09 13:35:00,48.2,40.6,29.89,NE,48,1.5,2.0,75,0.00,,,0.00,WUHU216HW,2013-02-09 21:35:00,
2013-02-09 13:40:00,48.6,41.0,29.88,ESE,108,1.3,2.0,75,0.00,,,0.00,WUHU216HW,2013-02-09 21:40:00,
2013-02-09 13:45:00,48.8,41.1,29.88,NNE,24,0.9,1.3,75,0.00,,,0.00,WUHU216HW,2013-02-09 21:45:00,
2013-02-09 13:50:00,48.8,40.8,29.88,ESE,113,1.1,1.8,74,0.00,,,0.00,WUHU216HW,2013-02-09 21:50:00,
2013-02-09 13:55:00,48.8,40.4,29.88,NE,45,1.8,2.2,73,0.00,,,0.00,WUHU216HW,2013-02-09 21:55:00,
2013-02-09 14:00:00,48.8,40.8,29.88,East,88,0.8,2.2,74,0.00,,,0.00,WUHU216HW,2013-02-09 22:00:00,
2013-02-09 14:05:00,49.0,40.6,29.88,East,86,0.9,2.0,73,0.00,,,0.00,WUHU216HW,2013-02-09 22:05:00,
2013-02-09 14:10:00,49.0,41.0,29.88,NNE,29,2.1,2.7,74,0.00,,,0.00,WUHU216HW,2013-02-09 22:10:00,
2013-02-09 14:15:00,49.0,41.0,29.88,NNE,23,1.8,2.7,74,0.00,,,0.00,WUHU216HW,2013-02-09 22:15:00,
2013-02-09 14:20:00,48.8,40.8,29.88,NNE,23,2.7,2.7,74,0.00,,,0.00,WUHU216HW,2013-02-09 22:20:00,
2013-02-09 14:25:00,48.6,40.6,29.88,ENE,68,0.4,2.7,74,0.00,,,0.00,WUHU216HW,2013-02-09 22:25:00,
2013-02-09 14:30:00,48.6,40.6,29.88,ENE,68,0.7,2.7,74,0.00,,,0.00,WUHU216HW,2013-02-09 22:30:00,
2013-02-09 14:35:00,48.2,40.2,29.88,North,0,1.0,1.8,74,0.00,,,0.00,WUHU216HW,2013-02-09 22:35:00,
2013-02-09 14:40:00,48.2,40.6,29.88,NNE,23,1.0,2.2,75,0.00,,,0.00,WUHU216HW,2013-02-09 22:40:00,
2013-02-09 14:45:00,48.2,40.2,29.88,ENE,68,0.9,2.2,74,0.00,,,0.00,WUHU216HW,2013-02-09 22:45:00,
2013-02-09 14:50:00,48.1,40.1,29.88,East,90,0.0,1.1,74,0.00,,,0.00,WUHU216HW,2013-02-09 22:50:00,
2013-02-09 14:55:00,47.9,40.2,29.88,NNE,23,0.4,1.1,75,0.00,,,0.00,WUHU216HW,2013-02-09 22:55:00,
2013-02-09 15:00:00,48.1,40.4,29.88,NNE,18,0.9,1.3,75,0.00,,,0.00,WUHU216HW,2013-02-09 23:00:00,
2013-02-09 15:05:00,48.1,40.4,29.88,North,0,1.3,2.0,75,0.00,,,0.00,WUHU216HW,2013-02-09 23:05:00,
2013-02-09 15:10:00,48.1,40.4,29.89,North,0,0.6,2.0,75,0.00,,,0.00,WUHU216HW,2013-02-09 23:10:00,
2013-02-09 15:15:00,48.1,40.4,29.89,NNE,23,0.4,2.2,75,0.00,,,0.00,WUHU216HW,2013-02-09 23:15:00,
2013-02-09 15:20:00,47.9,40.2,29.89,NE,45,3.4,3.4,75,0.00,,,0.00,WUHU216HW,2013-02-09 23:20:00,
2013-02-09 15:25:00,47.9,40.2,29.89,WNW,293,1.1,3.4,75,0.00,,,0.00,WUHU216HW,2013-02-09 23:25:00,
2013-02-09 15:30:00,47.5,40.0,29.89,NNE,23,1.2,3.4,75,0.00,,,0.00,WUHU216HW,2013-02-09 23:30:00,
2013-02-09 15:35:00,47.5,40.3,29.89,North,0,1.2,2.2,76,0.00,,,0.00,WUHU216HW,2013-02-09 23:35:00,
2013-02-09 15:40:00,47.3,40.2,29.89,North,359,0.6,2.2,76,0.00,,,0.00,WUHU216HW,2013-02-09 23:40:00,
2013-02-09 15:45:00,47.2,40.0,29.89,WNW,301,0.6,3.4,76,0.00,,,0.00,WUHU216HW,2013-02-09 23:45:00,
2013-02-09 15:50:00,47.2,40.3,29.90,ENE,61,0.5,3.4,77,0.00,,,0.00,WUHU216HW,2013-02-09 23:50:00,
2013-02-09 15:55:00,47.0,40.1,29.90,NNE,23,0.0,1.1,77,0.00,,,0.00,WUHU216HW,2013-02-09 23:55:00,
2013-02-09 16:00:00,46.8,40.3,29.90,NE,45,0.8,1.1,78,0.00,,,0.00,WUHU216HW,2013-02-10 00:00:00,
2013-02-09 16:05:00,46.6,39.8,29.90,North,0,0.5,1.1,77,0.00,,,0.00,WUHU216HW,2013-02-10 00:05:00,
2013-02-09 16:10:00,46.4,39.7,29.90,North,0,0.0,1.1,77,0.00,,,0.00,WUHU216HW,2013-02-10 00:10:00,
2013-02-09 16:15:00,46.4,40.0,29.90,North,0,0.4,0.4,78,0.00,,,0.00,WUHU216HW,2013-02-10 00:15:00,
2013-02-09 16:20:00,46.4,40.0,29.90,North,0,0.0,0.4,78,0.00,,,0.00,WUHU216HW,2013-02-10 00:20:00,
2013-02-09 16:25:00,46.3,40.1,29.90,North,0,0.0,0.0,79,0.00,,,0.00,WUHU216HW,2013-02-10 00:25:00,
2013-02-09 16:30:00,46.1,40.0,29.90,NNE,23,0.9,0.9,79,0.00,,,0.00,WUHU216HW,2013-02-10 00:30:00,
2013-02-09 16:35:00,46.1,40.0,29.90,North,0,0.0,0.9,79,0.00,,,0.00,WUHU216HW,2013-02-10 00:35:00,
2013-02-09 16:40:00,45.9,39.8,29.90,West,270,0.7,0.7,79,0.00,,,0.00,WUHU216HW,2013-02-10 00:40:00,
2013-02-09 16:45:00,45.9,40.1,29.91,WSW,248,0.0,1.3,80,0.00,,,0.00,WUHU216HW,2013-02-10 00:45:00,
2013-02-09 16:50:00,45.7,40.0,29.91,WSW,248,0.0,1.3,80,0.00,,,0.00,WUHU216HW,2013-02-10 00:50:00,
2013-02-09 16:55:00,45.7,40.2,29.91,NE,45,0.0,0.0,81,0.00,,,0.00,WUHU216HW,2013-02-10 00:55:00,
2013-02-09 17:00:00,45.7,40.2,29.91,NE,45,0.0,0.0,81,0.00,,,0.00,WUHU216HW,2013-02-10 01:00:00,
2013-02-09 17:05:00,45.5,40.1,29.91,NE,45,0.0,0.0,81,0.00,,,0.00,WUHU216HW,2013-02-10 01:05:00,
2013-02-09 17:10:00,45.5,40.1,29.91,NE,45,0.0,0.0,81,0.00,,,0.00,WUHU216HW,2013-02-10 01:10:00,
2013-02-09 17:15:00,45.4,39.9,29.91,North,0,1.8,1.8,81,0.00,,,0.00,WUHU216HW,2013-02-10 01:15:00,
2013-02-09 17:20:00,45.4,40.2,29.91,NNE,23,0.0,2.0,82,0.00,,,0.00,WUHU216HW,2013-02-10 01:20:00,
2013-02-09 17:25:00,45.2,40.1,29.91,NNE,23,0.4,2.0,82,0.00,,,0.00,WUHU216HW,2013-02-10 01:25:00,
2013-02-09 17:30:00,45.2,40.3,29.91,NE,45,0.0,0.4,83,0.00,,,0.00,WUHU216HW,2013-02-10 01:30:00,
2013-02-09 17:35:00,45.0,40.1,29.91,NE,45,0.0,0.2,83,0.00,,,0.00,WUHU216HW,2013-02-10 01:35:00,
2013-02-09 17:40:00,45.0,40.1,29.91,NE,45,0.0,0.0,83,0.00,,,0.00,WUHU216HW,2013-02-10 01:40:00,
2013-02-09 17:45:00,45.0,40.1,29.91,NE,45,0.0,0.0,83,0.00,,,0.00,WUHU216HW,2013-02-10 01:45:00,
2013-02-09 17:50:00,45.0,40.5,29.91,NNE,23,0.0,0.0,84,0.00,,,0.00,WUHU216HW,2013-02-10 01:50:00,
2013-02-09 17:55:00,44.8,40.3,29.91,North,0,0.0,0.0,84,0.00,,,0.00,WUHU216HW,2013-02-10 01:55:00,
2013-02-09 18:00:00,44.6,40.2,29.91,North,0,0.0,0.4,84,0.00,,,0.00,WUHU216HW,2013-02-10 02:00:00,
2013-02-09 18:05:00,44.6,40.2,29.91,North,0,0.0,0.4,84,0.00,,,0.00,WUHU216HW,2013-02-10 02:05:00,
2013-02-09 18:10:00,44.6,40.4,29.91,West,270,0.0,0.9,85,0.00,,,0.00,WUHU216HW,2013-02-10 02:10:00,
2013-02-09 18:15:00,44.6,40.4,29.92,West,270,0.0,0.9,85,0.00,,,0.00,WUHU216HW,2013-02-10 02:15:00,
2013-02-09 18:20:00,44.6,40.4,29.92,West,270,0.0,0.0,85,0.00,,,0.00,WUHU216HW,2013-02-10 02:20:00,
2013-02-09 18:25:00,44.6,40.4,29.91,West,270,0.0,0.0,85,0.00,,,0.00,WUHU216HW,2013-02-10 02:25:00,
2013-02-09 18:30:00,44.6,40.4,29.91,West,270,0.0,0.0,85,0.00,,,0.00,WUHU216HW,2013-02-10 02:30:00,
2013-02-09 18:35:00,44.8,40.6,29.91,West,270,0.0,0.0,85,0.00,,,0.00,WUHU216HW,2013-02-10 02:35:00,
2013-02-09 18:40:00,44.6,40.4,29.91,West,270,0.0,0.0,85,0.00,,,0.00,WUHU216HW,2013-02-10 02:40:00,
2013-02-09 18:45:00,44.6,40.4,29.91,West,270,0.0,0.0,85,0.00,,,0.00,WUHU216HW,2013-02-10 02:45:00,
2013-02-09 18:50:00,44.6,40.4,29.91,West,270,0.0,0.0,85,0.00,,,0.00,WUHU216HW,2013-02-10 02:50:00,
2013-02-09 18:55:00,44.6,40.4,29.91,WSW,248,0.0,1.1,85,0.00,,,0.00,WUHU216HW,2013-02-10 02:55:00,
2013-02-09 19:00:00,44.6,40.4,29.91,WSW,248,0.0,1.1,85,0.00,,,0.00,WUHU216HW,2013-02-10 03:00:00,
2013-02-09 19:05:00,44.5,40.2,29.91,WSW,248,0.0,0.0,85,0.00,,,0.00,WUHU216HW,2013-02-10 03:05:00,
2013-02-09 19:10:00,44.6,40.7,29.91,WSW,248,0.0,0.0,86,0.00,,,0.00,WUHU216HW,2013-02-10 03:10:00,
2013-02-09 19:15:00,44.6,40.7,29.91,WSW,248,0.0,0.0,86,0.00,,,0.00,WUHU216HW,2013-02-10 03:15:00,
2013-02-09 19:20:00,44.6,40.7,29.91,WSW,248,0.0,0.0,86,0.00,,,0.00,WUHU216HW,2013-02-10 03:20:00,
2013-02-09 19:25:00,44.5,40.5,29.91,WSW,248,0.0,0.0,86,0.00,,,0.00,WUHU216HW,2013-02-10 03:25:00,
2013-02-09 19:30:00,44.5,40.5,29.91,SW,225,0.0,0.0,86,0.00,,,0.00,WUHU216HW,2013-02-10 03:30:00,
2013-02-09 19:35:00,44.5,40.5,29.91,SW,225,0.4,0.4,86,0.00,,,0.00,WUHU216HW,2013-02-10 03:35:00,
2013-02-09 19:40:00,44.5,40.5,29.91,SSW,203,0.0,0.7,86,0.00,,,0.00,WUHU216HW,2013-02-10 03:40:00,
2013-02-09 19:45:00,44.3,40.3,29.91,SSW,203,0.0,0.7,86,0.00,,,0.00,WUHU216HW,2013-02-10 03:45:00,
2013-02-09 19:50:00,44.3,40.7,29.91,SE,135,0.0,0.0,87,0.00,,,0.00,WUHU216HW,2013-02-10 03:50:00,
2013-02-09 19:55:00,44.3,40.7,29.91,SSE,158,0.7,0.7,87,0.00,,,0.00,WUHU216HW,2013-02-10 03:55:00,
2013-02-09 20:00:00,44.3,40.7,29.91,SSE,158,0.0,0.7,87,0.00,,,0.00,WUHU216HW,2013-02-10 04:00:00,
2013-02-09 20:05:00,44.3,40.7,29.91,South,180,0.0,0.7,87,0.00,,,0.00,WUHU216HW,2013-02-10 04:05:00,
2013-02-09 20:10:00,44.3,40.7,29.91,South,180,0.0,0.0,87,0.00,,,0.00,WUHU216HW,2013-02-10 04:10:00,
2013-02-09 20:15:00,44.3,40.7,29.91,South,180,0.0,0.0,87,0.00,,,0.00,WUHU216HW,2013-02-10 04:15:00,
2013-02-09 20:20:00,44.3,40.7,29.91,SSE,158,0.0,0.4,87,0.00,,,0.00,WUHU216HW,2013-02-10 04:20:00,
2013-02-09 20:25:00,44.3,40.7,29.91,SSE,158,0.0,0.4,87,0.00,,,0.00,WUHU216HW,2013-02-10 04:25:00,
2013-02-09 20:30:00,44.3,40.7,29.91,SSE,158,0.0,0.0,87,0.00,,,0.00,WUHU216HW,2013-02-10 04:30:00,
2013-02-09 20:35:00,44.3,40.7,29.92,SSE,158,0.0,0.0,87,0.00,,,0.00,WUHU216HW,2013-02-10 04:35:00,
2013-02-09 20:40:00,44.3,40.7,29.92,SSE,158,0.0,0.0,87,0.00,,,0.00,WUHU216HW,2013-02-10 04:40:00,
2013-02-09 20:45:00,44.3,40.7,29.92,SSE,158,0.0,0.0,87,0.00,,,0.00,WUHU216HW,2013-02-10 04:45:00,
2013-02-09 20:50:00,44.3,40.7,29.92,SSE,158,0.0,0.0,87,0.00,,,0.00,WUHU216HW,2013-02-10 04:50:00,
2013-02-09 20:55:00,44.3,40.7,29.92,SSE,158,0.0,0.0,87,0.00,,,0.00,WUHU216HW,2013-02-10 04:55:00,
2013-02-09 21:00:00,44.3,40.7,29.92,SSE,158,0.0,0.0,87,0.00,,,0.00,WUHU216HW,2013-02-10 05:00:00,
2013-02-09 21:05:00,44.3,40.7,29.92,SSE,158,0.0,0.0,87,0.00,,,0.00,WUHU216HW,2013-02-10 05:05:00,
2013-02-09 21:10:00,44.3,40.7,29.92,SSE,158,0.0,0.0,87,0.00,,,0.00,WUHU216HW,2013-02-10 05:10:00,
2013-02-09 21:15:00,44.3,41.0,29.93,South,180,0.0,0.0,88,0.00,,,0.00,WUHU216HW,2013-02-10 05:15:00,
2013-02-09 21:20:00,44.5,41.1,29.93,NNE,23,1.6,1.6,88,0.00,,,0.00,WUHU216HW,2013-02-10 05:20:00,
2013-02-09 21:25:00,44.3,41.0,29.93,NNE,23,0.7,1.8,88,0.00,,,0.00,WUHU216HW,2013-02-10 05:25:00,
2013-02-09 21:30:00,44.3,41.0,29.93,NNE,23,1.3,1.8,88,0.00,,,0.00,WUHU216HW,2013-02-10 05:30:00,
2013-02-09 21:35:00,44.3,41.0,29.94,North,6,0.9,2.0,88,0.00,,,0.00,WUHU216HW,2013-02-10 05:35:00,
2013-02-09 21:40:00,44.3,41.0,29.94,NNE,23,0.4,2.0,88,0.00,,,0.00,WUHU216HW,2013-02-10 05:40:00,
2013-02-09 21:45:00,44.3,41.0,29.94,North,0,0.0,1.3,88,0.00,,,0.00,WUHU216HW,2013-02-10 05:45:00,
2013-02-09 21:50:00,44.3,41.0,29.93,North,0,0.0,1.3,88,0.00,,,0.00,WUHU216HW,2013-02-10 05:50:00,
2013-02-09 21:55:00,44.3,41.0,29.94,North,0,0.0,0.0,88,0.00,,,0.00,WUHU216HW,2013-02-10 05:55:00,
2013-02-09 22:00:00,44.3,41.0,29.94,NNE,23,0.4,0.4,88,0.00,,,0.00,WUHU216HW,2013-02-10 06:00:00,
2013-02-09 22:05:00,44.3,41.0,29.94,North,0,0.8,1.1,88,0.00,,,0.00,WUHU216HW,2013-02-10 06:05:00,
2013-02-09 22:10:00,44.5,41.1,29.94,NNE,23,0.2,1.1,88,0.00,,,0.00,WUHU216HW,2013-02-10 06:10:00,
2013-02-09 22:15:00,44.5,41.1,29.94,NNW,338,0.2,1.1,88,0.00,,,0.00,WUHU216HW,2013-02-10 06:15:00,
2013-02-09 22:20:00,44.5,41.1,29.94,NNE,23,1.6,1.6,88,0.00,,,0.00,WUHU216HW,2013-02-10 06:20:00,
2013-02-09 22:25:00,44.5,41.1,29.94,NNE,23,0.9,1.8,88,0.00,,,0.00,WUHU216HW,2013-02-10 06:25:00,
2013-02-09 22:30:00,44.5,41.1,29.94,NNE,23,0.5,1.8,88,0.00,,,0.00,WUHU216HW,2013-02-10 06:30:00,
2013-02-09 22:35:00,44.5,41.1,29.94,NNE,23,0.7,1.8,88,0.00,,,0.00,WUHU216HW,2013-02-10 06:35:00,
2013-02-09 22:40:00,44.5,41.1,29.94,NNE,19,1.7,2.5,88,0.00,,,0.00,WUHU216HW,2013-02-10 06:40:00,
2013-02-09 22:45:00,44.3,41.0,29.94,NNE,23,2.2,2.5,88,0.00,,,0.00,WUHU216HW,2013-02-10 06:45:00,
2013-02-09 22:50:00,44.3,41.0,29.94,NE,34,0.8,2.5,88,0.00,,,0.00,WUHU216HW,2013-02-10 06:50:00,
2013-02-09 22:55:00,44.3,41.0,29.94,North,0,0.9,2.2,88,0.00,,,0.00,WUHU216HW,2013-02-10 06:55:00,
2013-02-09 23:00:00,44.5,41.1,29.95,North,0,1.8,1.8,88,0.00,,,0.00,WUHU216HW,2013-02-10 07:00:00,
2013-02-09 23:05:00,44.3,41.0,29.95,North,7,0.9,1.8,88,0.00,,,0.00,WUHU216HW,2013-02-10 07:05:00,
2013-02-09 23:10:00,44.5,41.1,29.95,NE,39,1.1,1.8,88,0.00,,,0.00,WUHU216HW,2013-02-10 07:10:00,
2013-02-09 23:15:00,44.3,41.0,29.95,NNE,18,2.0,3.4,88,0.00,,,0.00,WUHU216HW,2013-02-10 07:15:00,
2013-02-09 23:20:00,44.3,41.0,29.95,NNE,17,2.4,3.4,88,0.00,,,0.00,WUHU216HW,2013-02-10 07:20:00,
2013-02-09 23:25:00,44.3,41.0,29.95,NNE,26,1.4,2.9,88,0.00,,,0.00,WUHU216HW,2013-02-10 07:25:00,
2013-02-09 23:30:00,44.3,41.0,29.95,NNE,23,1.3,2.9,88,0.00,,,0.00,WUHU216HW,2013-02-10 07:30:00,
2013-02-09 23:35:00,44.3,41.0,29.95,NNE,23,1.8,2.9,88,0.00,,,0.00,WUHU216HW,2013-02-10 07:35:00,
2013-02-09 23:40:00,44.3,41.0,29.95,NNE,31,0.9,2.0,88,0.00,,,0.00,WUHU216HW,2013-02-10 07:40:00,
2013-02-09 23:45:00,44.3,41.0,29.95,North,9,1.5,2.0,88,0.00,,,0.00,WUHU216HW,2013-02-10 07:45:00,
2013-02-09 23:50:00,44.3,41.0,29.95,NNW,339,0.7,2.0,88,0.00,,,0.00,WUHU216HW,2013-02-10 07:50:00,
2013-02-09 23:55:00,44.3,41.0,29.95,NE,36,0.4,1.1,88,0.00,,,0.00,WUHU216HW,2013-02-10 07:55:00,